Time,TemperatureF,DewpointF,PressureIn,WindDirection,WindDirectionDegrees,WindSpeedMPH,WindSpeedGustMPH,Humidity,HourlyPrecipIn,Conditions,Clouds,dailyrainin,SoftwareType,DateUTC
2013-06-09 00:04:00,76.5,71.0,29.87,SSW,193,0.0,0.0,83,0.00,,SKC,0.00,VWS V14.01,2013-06-09 05:04:00,
2013-06-09 00:09:00,76.4,70.9,29.87,SSW,193,0.0,0.0,83,0.00,,SKC,0.00,VWS V14.01,2013-06-09 05:09:00,
2013-06-09 00:14:00,76.4,70.9,29.87,SSW,193,0.0,0.0,83,0.00,,SKC,0.00,VWS V14.01,2013-06-09 05:14:00,
2013-06-09 00:19:00,76.4,71.2,29.87,SSW,193,0.0,1.0,84,0.00,,SKC,0.00,VWS V14.01,2013-06-09 05:19:00,
2013-06-09 00:24:00,76.4,71.2,29.86,SSW,193,0.0,1.0,84,0.00,,SKC,0.00,VWS V14.01,2013-06-09 05:24:00,
2013-06-09 00:29:00,76.3,71.1,29.87,SSW,193,0.0,1.0,84,0.00,,SKC,0.00,VWS V14.01,2013-06-09 05:29:00,
2013-06-09 00:34:00,76.3,71.1,29.87,SSW,193,0.0,0.0,84,0.00,,SKC,0.00,VWS V14.01,2013-06-09 05:34:00,
2013-06-09 00:39:00,76.3,71.1,29.86,SSW,193,1.0,5.0,84,0.00,,SKC,0.00,VWS V14.01,2013-06-09 05:39:00,
2013-06-09 00:44:00,76.3,71.1,29.86,SSW,193,0.0,5.0,84,0.00,,SKC,0.00,VWS V14.01,2013-06-09 05:44:00,
2013-06-09 00:49:00,76.3,71.1,29.85,South,189,4.0,8.0,84,0.00,,SKC,0.00,VWS V14.01,2013-06-09 05:49:00,
2013-06-09 00:54:00,76.4,71.6,29.85,South,188,0.0,8.0,85,0.00,,SKC,0.00,VWS V14.01,2013-06-09 05:54:00,
2013-06-09 00:59:00,76.4,71.6,29.85,South,188,4.0,8.0,85,0.00,,SKC,0.00,VWS V14.01,2013-06-09 05:59:00,
2013-06-09 01:04:00,76.4,71.6,29.85,South,171,4.0,6.0,85,0.00,,SKC,0.00,VWS V14.01,2013-06-09 06:04:00,
2013-06-09 01:09:00,76.4,71.6,29.85,South,171,0.0,6.0,85,0.00,,SKC,0.00,VWS V14.01,2013-06-09 06:09:00,
2013-06-09 01:14:00,76.3,71.5,29.85,South,171,0.0,6.0,85,0.00,,SKC,0.00,VWS V14.01,2013-06-09 06:14:00,
2013-06-09 01:19:00,76.2,71.4,29.85,South,171,2.0,6.0,85,0.00,,SKC,0.00,VWS V14.01,2013-06-09 06:19:00,
2013-06-09 01:24:00,76.2,71.4,29.85,South,171,0.0,6.0,85,0.00,,SKC,0.00,VWS V14.01,2013-06-09 06:24:00,
2013-06-09 01:29:00,76.1,71.3,29.85,South,171,1.0,6.0,85,0.00,,SKC,0.00,VWS V14.01,2013-06-09 06:29:00,
2013-06-09 01:34:00,76.0,71.5,29.85,South,171,2.0,6.0,86,0.00,,SKC,0.00,VWS V14.01,2013-06-09 06:34:00,
2013-06-09 01:39:00,76.0,71.5,29.86,South,171,0.0,6.0,86,0.00,,SKC,0.00,VWS V14.01,2013-06-09 06:39:00,
2013-06-09 01:44:00,75.9,71.4,29.86,SSE,168,4.0,10.0,86,0.00,,SKC,0.00,VWS V14.01,2013-06-09 06:44:00,
2013-06-09 01:49:00,75.8,71.7,29.85,SSE,165,4.0,10.0,87,0.00,,SKC,0.00,VWS V14.01,2013-06-09 06:49:00,
2013-06-09 01:54:00,75.7,71.6,29.85,SSE,165,2.0,10.0,87,0.00,,SKC,0.00,VWS V14.01,2013-06-09 06:54:00,
2013-06-09 01:59:00,75.6,71.5,29.85,SSE,165,6.0,10.0,87,0.00,,SKC,0.00,VWS V14.01,2013-06-09 06:59:00,
2013-06-09 02:04:00,75.6,71.5,29.86,SSE,165,4.0,5.0,87,0.00,,SKC,0.00,VWS V14.01,2013-06-09 07:04:00,
2013-06-09 02:09:00,75.5,71.4,29.86,SSE,165,0.0,6.0,87,0.00,,SKC,0.00,VWS V14.01,2013-06-09 07:09:00,
2013-06-09 02:14:00,75.5,71.4,29.86,SSE,165,1.0,6.0,87,0.00,,SKC,0.00,VWS V14.01,2013-06-09 07:14:00,
2013-06-09 02:19:00,75.4,71.3,29.86,SSE,164,0.0,7.0,87,0.00,,SKC,0.00,VWS V14.01,2013-06-09 07:19:00,
2013-06-09 02:24:00,75.4,71.3,29.85,SSE,164,0.0,7.0,87,0.00,,SKC,0.00,VWS V14.01,2013-06-09 07:24:00,
2013-06-09 02:29:00,75.3,71.2,29.85,SSE,163,0.0,7.0,87,0.00,,SKC,0.00,VWS V14.01,2013-06-09 07:29:00,
2013-06-09 02:34:00,75.3,71.5,29.85,SSE,163,3.0,6.0,88,0.00,,SKC,0.00,VWS V14.01,2013-06-09 07:34:00,
2013-06-09 02:39:00,75.2,71.4,29.85,SSE,163,3.0,6.0,88,0.00,,SKC,0.00,VWS V14.01,2013-06-09 07:39:00,
2013-06-09 02:44:00,75.2,71.4,29.85,SSE,160,3.0,11.0,88,0.00,,SKC,0.00,VWS V14.01,2013-06-09 07:44:00,
2013-06-09 02:49:00,75.2,71.4,29.85,SSE,160,2.0,11.0,88,0.00,,SKC,0.00,VWS V14.01,2013-06-09 07:49:00,
2013-06-09 02:54:00,75.2,71.4,29.85,SSE,157,2.0,11.0,88,0.00,,SKC,0.00,VWS V14.01,2013-06-09 07:54:00,
2013-06-09 02:59:00,75.1,71.3,29.85,SSE,155,6.0,11.0,88,0.00,,SKC,0.00,VWS V14.01,2013-06-09 07:59:00,
2013-06-09 03:04:00,75.1,71.6,29.85,SSE,154,4.0,6.0,89,0.00,,SKC,0.00,VWS V14.01,2013-06-09 08:04:00,
2013-06-09 03:09:00,75.0,71.5,29.85,SSE,150,3.0,11.0,89,0.00,,SKC,0.00,VWS V14.01,2013-06-09 08:09:00,
2013-06-09 03:14:00,75.0,71.5,29.85,SE,146,3.0,11.0,89,0.00,,SKC,0.00,VWS V14.01,2013-06-09 08:14:00,
2013-06-09 03:19:00,74.9,71.4,29.85,SE,146,5.0,11.0,89,0.00,,SKC,0.00,VWS V14.01,2013-06-09 08:19:00,
2013-06-09 03:24:00,74.9,71.1,29.84,SE,146,3.0,11.0,88,0.00,,SKC,0.00,VWS V14.01,2013-06-09 08:24:00,
2013-06-09 03:29:00,74.8,71.0,29.85,SSE,147,2.0,11.0,88,0.00,,SKC,0.00,VWS V14.01,2013-06-09 08:29:00,
2013-06-09 03:33:00,74.9,71.1,29.85,SE,146,0.0,5.0,88,0.00,,SKC,0.00,VWS V14.01,2013-06-09 08:33:00,
2013-06-09 03:38:00,74.9,71.1,29.85,SSE,161,3.0,11.0,88,0.00,,SKC,0.00,VWS V14.01,2013-06-09 08:38:00,
2013-06-09 03:43:00,74.9,71.1,29.85,SSE,159,3.0,11.0,88,0.00,,SKC,0.00,VWS V14.01,2013-06-09 08:43:00,
2013-06-09 03:48:00,74.9,71.1,29.85,SSE,156,4.0,11.0,88,0.00,,SKC,0.00,VWS V14.01,2013-06-09 08:48:00,
2013-06-09 03:53:00,75.0,71.2,29.85,SSE,153,3.0,11.0,88,0.00,,SKC,0.00,VWS V14.01,2013-06-09 08:53:00,
2013-06-09 03:58:00,75.0,71.2,29.85,SSE,154,5.0,11.0,88,0.00,,SKC,0.00,VWS V14.01,2013-06-09 08:58:00,
2013-06-09 04:03:00,75.0,71.2,29.84,SSE,155,4.0,5.0,88,0.00,,SKC,0.00,VWS V14.01,2013-06-09 09:03:00,
2013-06-09 04:08:00,75.0,71.2,29.85,SSE,150,9.0,12.0,88,0.00,,SKC,0.00,VWS V14.01,2013-06-09 09:08:00,
2013-06-09 04:13:00,75.0,71.2,29.85,SSE,153,7.0,12.0,88,0.00,,SKC,0.00,VWS V14.01,2013-06-09 09:13:00,
2013-06-09 04:18:00,75.0,71.2,29.86,SE,146,8.0,12.0,88,0.00,,SKC,0.00,VWS V14.01,2013-06-09 09:18:00,
2013-06-09 04:23:00,75.0,71.2,29.85,SE,145,5.0,12.0,88,0.00,,SKC,0.00,VWS V14.01,2013-06-09 09:23:00,
2013-06-09 04:28:00,75.0,71.2,29.85,SE,146,6.0,13.0,88,0.00,,SKC,0.00,VWS V14.01,2013-06-09 09:28:00,
2013-06-09 04:34:00,75.0,71.2,29.85,SE,145,5.0,11.0,88,0.00,,SKC,0.00,VWS V14.01,2013-06-09 09:34:00,
2013-06-09 04:39:00,75.0,71.2,29.86,SE,145,12.0,16.0,88,0.00,,SKC,0.00,VWS V14.01,2013-06-09 09:39:00,
2013-06-09 04:44:00,75.0,71.2,29.86,SE,143,11.0,16.0,88,0.00,,SKC,0.00,VWS V14.01,2013-06-09 09:44:00,
2013-06-09 04:49:00,74.9,71.1,29.87,SE,146,9.0,16.0,88,0.00,,SKC,0.00,VWS V14.01,2013-06-09 09:49:00,
2013-06-09 04:54:00,74.9,71.1,29.87,SE,145,5.0,16.0,88,0.00,,SKC,0.00,VWS V14.01,2013-06-09 09:54:00,
2013-06-09 04:59:00,74.9,71.1,29.87,SSE,148,6.0,16.0,88,0.00,,SKC,0.00,VWS V14.01,2013-06-09 09:59:00,
2013-06-09 05:04:00,74.9,71.1,29.86,SSE,150,4.0,10.0,88,0.00,,SKC,0.00,VWS V14.01,2013-06-09 10:04:00,
2013-06-09 05:09:00,74.8,71.0,29.87,SSE,148,2.0,11.0,88,0.00,,SKC,0.00,VWS V14.01,2013-06-09 10:09:00,
2013-06-09 05:14:00,74.8,71.0,29.87,SSE,148,2.0,11.0,88,0.00,,SKC,0.00,VWS V14.01,2013-06-09 10:14:00,
2013-06-09 05:19:00,74.7,70.9,29.87,SSE,148,1.0,11.0,88,0.00,,SKC,0.00,VWS V14.01,2013-06-09 10:19:00,
2013-06-09 05:24:00,74.6,70.8,29.87,SSE,148,3.0,11.0,88,0.00,,SKC,0.00,VWS V14.01,2013-06-09 10:24:00,
2013-06-09 05:29:00,74.5,70.7,29.86,SSE,150,2.0,11.0,88,0.00,,SKC,0.00,VWS V14.01,2013-06-09 10:29:00,
2013-06-09 05:34:00,74.4,70.9,29.86,SSE,150,3.0,6.0,89,0.00,,SKC,0.00,VWS V14.01,2013-06-09 10:34:00,
2013-06-09 05:39:00,74.3,70.8,29.86,SSE,149,3.0,7.0,89,0.00,,SKC,0.00,VWS V14.01,2013-06-09 10:39:00,
2013-06-09 05:44:00,74.2,70.8,29.86,SSE,149,2.0,7.0,89,0.00,,SKC,0.00,VWS V14.01,2013-06-09 10:44:00,
2013-06-09 05:49:00,74.2,70.8,29.86,SSE,149,3.0,7.0,89,0.00,,SKC,0.00,VWS V14.01,2013-06-09 10:49:00,
2013-06-09 05:54:00,74.1,71.0,29.86,SSE,149,3.0,7.0,90,0.00,,SKC,0.00,VWS V14.01,2013-06-09 10:54:00,
2013-06-09 05:59:00,74.1,71.0,29.86,SSE,149,2.0,7.0,90,0.00,,SKC,0.00,VWS V14.01,2013-06-09 10:59:00,
2013-06-09 06:04:00,74.0,70.9,29.87,SSE,148,2.0,6.0,90,0.00,,SKC,0.00,VWS V14.01,2013-06-09 11:04:00,
2013-06-09 06:09:00,74.1,71.0,29.87,SSE,149,0.0,6.0,90,0.00,,SKC,0.00,VWS V14.01,2013-06-09 11:09:00,
2013-06-09 06:14:00,74.1,71.0,29.87,SSE,149,2.0,6.0,90,0.00,,SKC,0.00,VWS V14.01,2013-06-09 11:14:00,
2013-06-09 06:19:00,74.1,71.0,29.87,SSE,148,0.0,6.0,90,0.00,,SKC,0.00,VWS V14.01,2013-06-09 11:19:00,
2013-06-09 06:24:00,74.1,71.3,29.88,SSE,149,1.0,6.0,91,0.00,,SKC,0.00,VWS V14.01,2013-06-09 11:24:00,
2013-06-09 06:29:00,74.1,71.3,29.88,SSE,149,4.0,7.0,91,0.00,,SKC,0.00,VWS V14.01,2013-06-09 11:29:00,
2013-06-09 06:34:00,74.1,71.3,29.88,SSE,149,1.0,4.0,91,0.00,,SKC,0.00,VWS V14.01,2013-06-09 11:34:00,
2013-06-09 06:39:00,74.2,71.4,29.88,SSE,149,0.0,4.0,91,0.00,,SKC,0.00,VWS V14.01,2013-06-09 11:39:00,
2013-06-09 06:43:00,74.2,71.4,29.89,SSE,149,2.0,4.0,91,0.00,,SKC,0.00,VWS V14.01,2013-06-09 11:43:00,
2013-06-09 06:48:00,74.2,71.4,29.89,SSE,149,2.0,4.0,91,0.00,,SKC,0.00,VWS V14.01,2013-06-09 11:48:00,
2013-06-09 06:53:00,74.3,71.5,29.89,SSE,149,0.0,4.0,91,0.00,,SKC,0.00,VWS V14.01,2013-06-09 11:53:00,
2013-06-09 06:58:00,74.3,71.5,29.89,SSE,149,0.0,4.0,91,0.00,,SKC,0.00,VWS V14.01,2013-06-09 11:58:00,
2013-06-09 07:03:00,74.3,71.5,29.89,SSE,149,0.0,3.0,91,0.00,,SKC,0.00,VWS V14.01,2013-06-09 12:03:00,
2013-06-09 07:08:00,74.3,71.5,29.89,SSE,149,0.0,4.0,91,0.00,,SKC,0.00,VWS V14.01,2013-06-09 12:08:00,
2013-06-09 07:13:00,74.4,71.6,29.89,SSE,149,0.0,4.0,91,0.00,,SKC,0.00,VWS V14.01,2013-06-09 12:13:00,
2013-06-09 07:18:00,74.4,71.6,29.90,SSE,149,1.0,4.0,91,0.00,,SKC,0.00,VWS V14.01,2013-06-09 12:18:00,
2013-06-09 07:24:00,74.4,71.9,29.90,SSE,149,0.0,4.0,92,0.00,,SKC,0.00,VWS V14.01,2013-06-09 12:24:00,
2013-06-09 07:29:00,74.4,71.9,29.89,SSE,149,3.0,4.0,92,0.00,,SKC,0.00,VWS V14.01,2013-06-09 12:29:00,
2013-06-09 07:34:00,74.5,72.0,29.89,SSE,149,0.0,5.0,92,0.00,,SKC,0.00,VWS V14.01,2013-06-09 12:34:00,
2013-06-09 07:39:00,74.5,72.0,29.89,SSE,149,3.0,5.0,92,0.00,,SKC,0.00,VWS V14.01,2013-06-09 12:39:00,
2013-06-09 07:44:00,74.6,72.1,29.90,SSE,149,1.0,5.0,92,0.00,,SKC,0.00,VWS V14.01,2013-06-09 12:44:00,
2013-06-09 07:49:00,74.6,72.1,29.90,SSE,149,0.0,5.0,92,0.00,,SKC,0.00,VWS V14.01,2013-06-09 12:49:00,
2013-06-09 07:54:00,74.8,72.3,29.91,SSE,149,0.0,5.0,92,0.00,,SKC,0.00,VWS V14.01,2013-06-09 12:54:00,
2013-06-09 07:58:00,75.0,72.5,29.91,SSE,149,0.0,5.0,92,0.00,,SKC,0.00,VWS V14.01,2013-06-09 12:58:00,
2013-06-09 08:03:00,75.1,72.6,29.91,SSE,149,0.0,0.0,92,0.00,,SKC,0.00,VWS V14.01,2013-06-09 13:03:00,
2013-06-09 08:08:00,75.1,72.6,29.91,SSE,149,0.0,0.0,92,0.00,,SKC,0.00,VWS V14.01,2013-06-09 13:08:00,
2013-06-09 08:13:00,75.2,72.7,29.92,SSE,149,0.0,1.0,92,0.00,,SKC,0.00,VWS V14.01,2013-06-09 13:13:00,
2013-06-09 08:19:00,75.3,72.8,29.92,SSE,149,0.0,1.0,92,0.00,,SKC,0.00,VWS V14.01,2013-06-09 13:19:00,
2013-06-09 08:24:00,75.4,72.9,29.92,SSE,149,0.0,1.0,92,0.00,,SKC,0.00,VWS V14.01,2013-06-09 13:24:00,
2013-06-09 08:28:00,75.5,73.0,29.93,SSE,149,0.0,1.0,92,0.00,,SKC,0.00,VWS V14.01,2013-06-09 13:28:00,
2013-06-09 08:33:00,75.6,73.1,29.93,SSE,149,0.0,1.0,92,0.00,,SKC,0.00,VWS V14.01,2013-06-09 13:33:00,
2013-06-09 08:38:00,75.7,73.2,29.93,SSE,149,0.0,1.0,92,0.00,,SKC,0.00,VWS V14.01,2013-06-09 13:38:00,
2013-06-09 08:43:00,75.7,73.2,29.93,SSE,149,0.0,1.0,92,0.00,,SKC,0.00,VWS V14.01,2013-06-09 13:43:00,
2013-06-09 08:48:00,75.7,72.9,29.93,SSE,149,0.0,3.0,91,0.00,,SKC,0.00,VWS V14.01,2013-06-09 13:48:00,
2013-06-09 08:53:00,75.9,73.1,29.93,SSE,149,0.0,3.0,91,0.00,,SKC,0.00,VWS V14.01,2013-06-09 13:53:00,
2013-06-09 08:58:00,76.0,73.2,29.93,SSE,149,2.0,4.0,91,0.00,,SKC,0.00,VWS V14.01,2013-06-09 13:58:00,
2013-06-09 09:03:00,76.2,73.4,29.93,SSE,149,4.0,4.0,91,0.00,,SKC,0.00,VWS V14.01,2013-06-09 14:03:00,
2013-06-09 09:08:00,76.4,73.6,29.94,SSE,149,0.0,4.0,91,0.00,,SKC,0.00,VWS V14.01,2013-06-09 14:08:00,
2013-06-09 09:13:00,76.5,73.3,29.94,SSE,149,3.0,4.0,90,0.00,,SKC,0.00,VWS V14.01,2013-06-09 14:13:00,
2013-06-09 09:18:00,76.6,73.4,29.94,SSE,149,0.0,4.0,90,0.00,,SKC,0.00,VWS V14.01,2013-06-09 14:18:00,
2013-06-09 09:23:00,76.7,73.6,29.94,SSE,149,0.0,4.0,90,0.00,,SKC,0.00,VWS V14.01,2013-06-09 14:23:00,
2013-06-09 09:28:00,76.7,73.6,29.94,SSE,149,1.0,4.0,90,0.00,,SKC,0.00,VWS V14.01,2013-06-09 14:28:00,
2013-06-09 09:33:00,76.7,73.2,29.93,SSE,149,0.0,0.0,89,0.00,,SKC,0.00,VWS V14.01,2013-06-09 14:33:00,
2013-06-09 09:38:00,76.8,73.3,29.93,SSE,149,0.0,1.0,89,0.00,,SKC,0.00,VWS V14.01,2013-06-09 14:38:00,
2013-06-09 09:43:00,77.0,73.5,29.93,SSE,149,0.0,1.0,89,0.00,,SKC,0.00,VWS V14.01,2013-06-09 14:43:00,
2013-06-09 09:48:00,77.1,73.3,29.93,SE,142,0.0,6.0,88,0.00,,SKC,0.00,VWS V14.01,2013-06-09 14:48:00,
2013-06-09 09:53:00,77.5,73.7,29.93,SE,142,4.0,6.0,88,0.00,,SKC,0.00,VWS V14.01,2013-06-09 14:53:00,
2013-06-09 09:58:00,77.6,73.4,29.93,SE,140,6.0,9.0,87,0.00,,SKC,0.00,VWS V14.01,2013-06-09 14:58:00,
2013-06-09 10:03:00,77.7,73.5,29.93,SE,140,0.0,3.0,87,0.00,,SKC,0.00,VWS V14.01,2013-06-09 15:03:00,
2013-06-09 10:08:00,77.8,73.3,29.93,SE,136,4.0,6.0,86,0.00,,SKC,0.00,VWS V14.01,2013-06-09 15:08:00,
2013-06-09 10:13:00,77.7,73.2,29.93,SE,136,0.0,6.0,86,0.00,,SKC,0.00,VWS V14.01,2013-06-09 15:13:00,
2013-06-09 10:18:00,77.7,73.2,29.93,SE,136,0.0,6.0,86,0.00,,SKC,0.00,VWS V14.01,2013-06-09 15:18:00,
2013-06-09 10:23:00,77.6,73.1,29.93,SE,136,0.0,6.0,86,0.00,,SKC,0.00,VWS V14.01,2013-06-09 15:23:00,
2013-06-09 10:28:00,77.5,73.0,29.92,SE,136,0.0,6.0,86,0.00,,SKC,0.00,VWS V14.01,2013-06-09 15:28:00,
2013-06-09 10:33:00,77.5,73.0,29.92,SE,136,0.0,1.0,86,0.00,,SKC,0.00,VWS V14.01,2013-06-09 15:33:00,
2013-06-09 10:38:00,77.6,73.1,29.91,SE,136,0.0,3.0,86,0.00,,SKC,0.00,VWS V14.01,2013-06-09 15:38:00,
2013-06-09 10:43:00,77.9,73.4,29.91,SE,136,0.0,3.0,86,0.00,,SKC,0.00,VWS V14.01,2013-06-09 15:43:00,
2013-06-09 10:48:00,78.4,73.5,29.92,SE,136,0.0,4.0,85,0.00,,SKC,0.00,VWS V14.01,2013-06-09 15:48:00,
2013-06-09 10:53:00,78.8,73.2,29.92,SE,140,0.0,5.0,83,0.00,,SKC,0.00,VWS V14.01,2013-06-09 15:53:00,
2013-06-09 10:58:00,79.3,73.3,29.92,SE,140,0.0,5.0,82,0.00,,SKC,0.00,VWS V14.01,2013-06-09 15:58:00,
2013-06-09 11:03:00,79.9,73.6,29.92,SE,141,0.0,5.0,81,0.00,,SKC,0.00,VWS V14.01,2013-06-09 16:03:00,
2013-06-09 11:08:00,80.6,73.5,29.91,SE,141,3.0,5.0,79,0.00,,SKC,0.00,VWS V14.01,2013-06-09 16:08:00,
2013-06-09 11:13:00,81.3,74.2,29.91,SE,142,5.0,7.0,79,0.00,,SKC,0.00,VWS V14.01,2013-06-09 16:13:00,
2013-06-09 11:18:00,82.1,74.2,29.91,SSE,155,4.0,10.0,77,0.00,,SKC,0.00,VWS V14.01,2013-06-09 16:18:00,
2013-06-09 11:23:00,82.5,74.2,29.91,SSE,158,6.0,10.0,76,0.00,,SKC,0.00,VWS V14.01,2013-06-09 16:23:00,
2013-06-09 11:28:00,82.7,74.0,29.91,SSE,158,0.0,10.0,75,0.00,,SKC,0.00,VWS V14.01,2013-06-09 16:28:00,
2013-06-09 11:33:00,82.9,73.8,29.91,SSE,158,3.0,5.0,74,0.00,,SKC,0.00,VWS V14.01,2013-06-09 16:33:00,
2013-06-09 11:38:00,83.2,73.7,29.91,SSE,158,5.0,5.0,73,0.00,,SKC,0.00,VWS V14.01,2013-06-09 16:38:00,
2013-06-09 11:43:00,83.5,73.9,29.90,SSE,158,1.0,5.0,73,0.00,,SKC,0.00,VWS V14.01,2013-06-09 16:43:00,
2013-06-09 11:48:00,83.8,74.2,29.90,SSE,157,4.0,7.0,73,0.00,,SKC,0.00,VWS V14.01,2013-06-09 16:48:00,
2013-06-09 11:53:00,83.8,73.4,29.90,SSE,157,0.0,7.0,71,0.00,,SKC,0.00,VWS V14.01,2013-06-09 16:53:00,
2013-06-09 11:58:00,84.0,74.0,29.90,SSE,157,0.0,7.0,72,0.00,,SKC,0.00,VWS V14.01,2013-06-09 16:58:00,
2013-06-09 12:00:00,84.3,73.9,29.90,SSE,157,3.0,7.0,71,0.00,,SKC,0.00,VWS V14.01,2013-06-09 17:00:00,
2013-06-09 12:04:00,84.4,73.6,29.91,SSE,157,0.0,0.0,70,0.00,,SKC,0.00,VWS V14.01,2013-06-09 17:04:00,
2013-06-09 12:09:00,84.7,73.8,29.90,SSE,157,5.0,7.0,70,0.00,,SKC,0.00,VWS V14.01,2013-06-09 17:09:00,
2013-06-09 12:14:00,85.0,73.7,29.91,SSE,157,3.0,7.0,69,0.00,,SKC,0.00,VWS V14.01,2013-06-09 17:14:00,
2013-06-09 12:19:00,85.4,74.9,29.90,SSE,160,7.0,7.0,71,0.00,,SKC,0.00,VWS V14.01,2013-06-09 17:19:00,
2013-06-09 12:24:00,85.8,74.0,29.91,South,170,0.0,9.0,68,0.00,,SKC,0.00,VWS V14.01,2013-06-09 17:24:00,
2013-06-09 12:29:00,86.1,74.8,29.90,South,170,3.0,9.0,69,0.00,,SKC,0.00,VWS V14.01,2013-06-09 17:29:00,
2013-06-09 12:34:00,86.5,75.1,29.90,SE,140,1.0,9.0,69,0.00,,SKC,0.00,VWS V14.01,2013-06-09 17:34:00,
2013-06-09 12:39:00,86.6,74.8,29.89,SE,134,3.0,9.0,68,0.00,,SKC,0.00,VWS V14.01,2013-06-09 17:39:00,
2013-06-09 12:44:00,86.6,74.8,29.89,SE,134,0.0,9.0,68,0.00,,SKC,0.00,VWS V14.01,2013-06-09 17:44:00,
2013-06-09 12:49:00,86.7,74.9,29.89,SE,133,3.0,9.0,68,0.00,,SKC,0.00,VWS V14.01,2013-06-09 17:49:00,
2013-06-09 12:54:00,86.5,74.2,29.89,SE,133,0.0,9.0,67,0.00,,SKC,0.00,VWS V14.01,2013-06-09 17:54:00,
2013-06-09 12:58:00,86.8,75.0,29.88,SE,133,0.0,9.0,68,0.00,,SKC,0.00,VWS V14.01,2013-06-09 17:58:00,
2013-06-09 13:04:00,87.1,74.8,29.88,SE,136,5.0,10.0,67,0.00,,SKC,0.00,VWS V14.01,2013-06-09 18:04:00,
2013-06-09 13:08:00,86.9,74.2,29.88,SE,139,3.0,10.0,66,0.00,,SKC,0.00,VWS V14.01,2013-06-09 18:08:00,
2013-06-09 13:13:00,86.7,74.0,29.88,SE,139,0.0,10.0,66,0.00,,SKC,0.00,VWS V14.01,2013-06-09 18:13:00,
2013-06-09 13:18:00,86.8,75.0,29.89,SE,134,5.0,10.0,68,0.00,,SKC,0.00,VWS V14.01,2013-06-09 18:18:00,
2013-06-09 13:23:00,86.4,75.0,29.89,ESE,122,4.0,10.0,69,0.00,,SKC,0.00,VWS V14.01,2013-06-09 18:23:00,
2013-06-09 13:28:00,86.1,75.2,29.89,ESE,123,1.0,10.0,70,0.00,,SKC,0.00,VWS V14.01,2013-06-09 18:28:00,
2013-06-09 13:33:00,85.7,75.2,29.89,ESE,117,1.0,6.0,71,0.00,,SKC,0.00,VWS V14.01,2013-06-09 18:33:00,
2013-06-09 13:38:00,85.7,75.2,29.88,SE,132,0.0,12.0,71,0.00,,SKC,0.00,VWS V14.01,2013-06-09 18:38:00,
2013-06-09 13:43:00,86.1,74.8,29.89,ESE,122,4.0,12.0,69,0.00,,SKC,0.00,VWS V14.01,2013-06-09 18:43:00,
2013-06-09 13:48:00,86.2,74.8,29.88,ESE,116,3.0,12.0,69,0.00,,SKC,0.00,VWS V14.01,2013-06-09 18:48:00,
2013-06-09 13:53:00,86.5,75.1,29.88,ESE,111,2.0,12.0,69,0.00,,SKC,0.00,VWS V14.01,2013-06-09 18:53:00,
2013-06-09 13:58:00,86.8,74.5,29.87,SE,137,6.0,12.0,67,0.00,,SKC,0.00,VWS V14.01,2013-06-09 18:58:00,
2013-06-09 14:03:00,86.9,74.6,29.88,SE,139,0.0,3.0,67,0.00,,SKC,0.00,VWS V14.01,2013-06-09 19:03:00,
2013-06-09 14:08:00,87.2,74.9,29.87,SE,140,3.0,9.0,67,0.00,,SKC,0.00,VWS V14.01,2013-06-09 19:08:00,
2013-06-09 14:13:00,87.4,75.1,29.87,SE,144,2.0,9.0,67,0.00,,SKC,0.00,VWS V14.01,2013-06-09 19:13:00,
2013-06-09 14:18:00,87.7,75.4,29.86,SE,143,0.0,9.0,67,0.00,,SKC,0.00,VWS V14.01,2013-06-09 19:18:00,
2013-06-09 14:23:00,88.0,75.2,29.86,SE,138,3.0,9.0,66,0.00,,SKC,0.00,VWS V14.01,2013-06-09 19:23:00,
2013-06-09 14:28:00,88.1,75.3,29.85,SE,138,11.0,12.0,66,0.00,,SKC,0.00,VWS V14.01,2013-06-09 19:28:00,
2013-06-09 14:33:00,88.2,75.0,29.85,SE,141,4.0,13.0,65,0.00,,SKC,0.00,VWS V14.01,2013-06-09 19:33:00,
2013-06-09 14:38:00,88.2,74.0,29.85,SE,142,2.0,13.0,63,0.00,,SKC,0.00,VWS V14.01,2013-06-09 19:38:00,
2013-06-09 14:43:00,88.4,74.2,29.85,SSE,152,4.0,13.0,63,0.00,,SKC,0.00,VWS V14.01,2013-06-09 19:43:00,
2013-06-09 14:48:00,88.2,74.0,29.85,SSE,152,2.0,13.0,63,0.00,,SKC,0.00,VWS V14.01,2013-06-09 19:48:00,
2013-06-09 14:53:00,88.1,74.4,29.85,SSE,149,3.0,13.0,64,0.00,,SKC,0.00,VWS V14.01,2013-06-09 19:53:00,
2013-06-09 14:58:00,88.0,74.3,29.85,SSE,147,1.0,13.0,64,0.00,,SKC,0.00,VWS V14.01,2013-06-09 19:58:00,
2013-06-09 15:03:00,88.1,73.9,29.85,SSE,147,1.0,9.0,63,0.00,,SKC,0.00,VWS V14.01,2013-06-09 20:03:00,
2013-06-09 15:08:00,88.4,75.1,29.85,SSE,147,5.0,9.0,65,0.00,,SKC,0.00,VWS V14.01,2013-06-09 20:08:00,
2013-06-09 15:13:00,88.7,74.5,29.85,SE,146,4.0,9.0,63,0.00,,SKC,0.00,VWS V14.01,2013-06-09 20:13:00,
2013-06-09 15:18:00,88.8,75.1,29.85,SSE,147,5.0,9.0,64,0.00,,SKC,0.00,VWS V14.01,2013-06-09 20:18:00,
2013-06-09 15:23:00,88.8,74.1,29.86,SSE,147,0.0,9.0,62,0.00,,SKC,0.00,VWS V14.01,2013-06-09 20:23:00,
2013-06-09 15:28:00,88.9,74.2,29.86,SSE,147,0.0,9.0,62,0.00,,SKC,0.00,VWS V14.01,2013-06-09 20:28:00,
2013-06-09 15:33:00,89.3,75.1,29.86,SSE,147,7.0,7.0,63,0.00,,SKC,0.00,VWS V14.01,2013-06-09 20:33:00,
2013-06-09 15:38:00,89.2,74.5,29.86,SE,146,1.0,10.0,62,0.00,,SKC,0.00,VWS V14.01,2013-06-09 20:38:00,
2013-06-09 15:43:00,89.1,74.9,29.86,SE,146,0.0,10.0,63,0.00,,SKC,0.00,VWS V14.01,2013-06-09 20:43:00,
2013-06-09 15:48:00,89.2,74.5,29.86,SE,139,0.0,10.0,62,0.00,,SKC,0.00,VWS V14.01,2013-06-09 20:48:00,
2013-06-09 15:53:00,89.3,75.5,29.86,SE,128,3.0,10.0,64,0.00,,SKC,0.00,VWS V14.01,2013-06-09 20:53:00,
2013-06-09 15:58:00,89.4,74.7,29.86,SE,128,0.0,10.0,62,0.00,,SKC,0.00,VWS V14.01,2013-06-09 20:58:00,
2013-06-09 16:03:00,89.7,74.5,29.86,SE,128,1.0,4.0,61,0.00,,SKC,0.00,VWS V14.01,2013-06-09 21:03:00,
2013-06-09 16:08:00,89.8,74.6,29.85,ESE,118,5.0,6.0,61,0.00,,SKC,0.00,VWS V14.01,2013-06-09 21:08:00,
2013-06-09 16:13:00,89.5,74.3,29.85,SE,137,5.0,11.0,61,0.00,,SKC,0.00,VWS V14.01,2013-06-09 21:13:00,
2013-06-09 16:18:00,88.6,73.9,29.85,SE,140,2.0,11.0,62,0.00,,SKC,0.00,VWS V14.01,2013-06-09 21:18:00,
2013-06-09 16:23:00,88.2,74.0,29.85,SE,140,3.0,11.0,63,0.00,,SKC,0.00,VWS V14.01,2013-06-09 21:23:00,
2013-06-09 16:28:00,87.9,73.7,29.85,SE,141,0.0,11.0,63,0.00,,SKC,0.00,VWS V14.01,2013-06-09 21:28:00,
2013-06-09 16:33:00,87.8,73.2,29.86,SE,141,5.0,5.0,62,0.00,,SKC,0.00,VWS V14.01,2013-06-09 21:33:00,
2013-06-09 16:38:00,87.8,73.6,29.86,SE,140,0.0,5.0,63,0.00,,SKC,0.00,VWS V14.01,2013-06-09 21:38:00,
2013-06-09 16:43:00,87.6,73.0,29.86,SE,138,0.0,5.0,62,0.00,,SKC,0.00,VWS V14.01,2013-06-09 21:43:00,
2013-06-09 16:48:00,87.4,72.8,29.85,SE,138,2.0,9.0,62,0.00,,SKC,0.00,VWS V14.01,2013-06-09 21:48:00,
2013-06-09 16:53:00,87.0,72.4,29.86,SE,144,6.0,10.0,62,0.00,,SKC,0.00,VWS V14.01,2013-06-09 21:53:00,
2013-06-09 16:58:00,86.6,72.5,29.87,SE,144,3.0,10.0,63,0.00,,SKC,0.00,VWS V14.01,2013-06-09 21:58:00,
2013-06-09 17:03:00,86.3,72.2,29.86,SE,144,3.0,7.0,63,0.00,,SKC,0.00,VWS V14.01,2013-06-09 22:03:00,
2013-06-09 17:08:00,86.0,71.9,29.86,SE,144,6.0,9.0,63,0.00,,SKC,0.00,VWS V14.01,2013-06-09 22:08:00,
2013-06-09 17:13:00,85.8,71.8,29.86,SE,143,0.0,9.0,63,0.00,,SKC,0.00,VWS V14.01,2013-06-09 22:13:00,
2013-06-09 17:18:00,85.7,71.7,29.87,SE,141,2.0,9.0,63,0.00,,SKC,0.00,VWS V14.01,2013-06-09 22:18:00,
2013-06-09 17:23:00,85.7,72.1,29.88,SE,141,0.0,9.0,64,0.00,,SKC,0.00,VWS V14.01,2013-06-09 22:23:00,
2013-06-09 17:28:00,85.6,72.5,29.87,SE,141,0.0,9.0,65,0.00,,SKC,0.00,VWS V14.01,2013-06-09 22:28:00,
2013-06-09 17:33:00,85.5,72.4,29.87,SE,140,0.0,4.0,65,0.00,,SKC,0.00,VWS V14.01,2013-06-09 22:33:00,
2013-06-09 17:38:00,85.4,72.3,29.87,SE,140,0.0,4.0,65,0.00,,SKC,0.00,VWS V14.01,2013-06-09 22:38:00,
2013-06-09 17:43:00,85.4,72.3,29.87,SE,140,0.0,4.0,65,0.00,,SKC,0.00,VWS V14.01,2013-06-09 22:43:00,
2013-06-09 17:48:00,85.4,72.3,29.87,SE,140,2.0,4.0,65,0.00,,SKC,0.00,VWS V14.01,2013-06-09 22:48:00,
2013-06-09 17:53:00,85.3,72.2,29.86,SE,140,0.0,4.0,65,0.00,,SKC,0.00,VWS V14.01,2013-06-09 22:53:00,
2013-06-09 17:58:00,85.2,72.1,29.85,SE,140,0.0,4.0,65,0.00,,SKC,0.00,VWS V14.01,2013-06-09 22:58:00,
2013-06-09 18:03:00,85.1,72.0,29.85,SE,140,4.0,4.0,65,0.00,,SKC,0.00,VWS V14.01,2013-06-09 23:03:00,
2013-06-09 18:08:00,85.0,71.9,29.86,SE,140,1.0,4.0,65,0.00,,SKC,0.00,VWS V14.01,2013-06-09 23:08:00,
2013-06-09 18:13:00,84.9,71.8,29.86,SE,140,0.0,4.0,65,0.00,,SKC,0.00,VWS V14.01,2013-06-09 23:13:00,
2013-06-09 18:18:00,84.9,72.7,29.86,SE,140,0.0,4.0,67,0.00,,SKC,0.00,VWS V14.01,2013-06-09 23:18:00,
2013-06-09 18:23:00,84.6,72.9,29.86,SE,140,0.0,4.0,68,0.00,,SKC,0.00,VWS V14.01,2013-06-09 23:23:00,
2013-06-09 18:28:00,84.1,73.3,29.86,SE,140,0.0,4.0,70,0.00,,SKC,0.00,VWS V14.01,2013-06-09 23:28:00,
2013-06-09 18:33:00,83.3,73.3,29.86,SE,139,0.0,4.0,72,0.00,,SKC,0.00,VWS V14.01,2013-06-09 23:33:00,
2013-06-09 18:38:00,82.8,73.3,29.85,SE,139,3.0,4.0,73,0.00,,SKC,0.00,VWS V14.01,2013-06-09 23:38:00,
2013-06-09 18:43:00,82.2,73.5,29.85,SE,139,0.0,5.0,75,0.00,,SKC,0.00,VWS V14.01,2013-06-09 23:43:00,
2013-06-09 18:48:00,81.9,72.8,29.86,SE,138,0.0,6.0,74,0.00,,SKC,0.00,VWS V14.01,2013-06-09 23:48:00,
2013-06-09 18:53:00,81.8,70.6,29.86,SE,138,1.0,9.0,69,0.00,,SKC,0.00,VWS V14.01,2013-06-09 23:53:00,
2013-06-09 18:58:00,81.9,69.9,29.86,SE,138,0.0,9.0,67,0.00,,SKC,0.00,VWS V14.01,2013-06-09 23:58:00,
2013-06-09 19:03:00,82.0,70.0,29.86,SE,138,0.0,1.0,67,0.00,,SKC,0.00,VWS V14.01,2013-06-10 00:03:00,
2013-06-09 19:08:00,82.1,69.6,29.86,SE,138,0.0,3.0,66,0.00,,SKC,0.00,VWS V14.01,2013-06-10 00:08:00,
2013-06-09 19:13:00,82.3,69.8,29.86,SE,138,1.0,3.0,66,0.00,,SKC,0.00,VWS V14.01,2013-06-10 00:13:00,
2013-06-09 19:18:00,82.3,69.4,29.87,SE,136,0.0,5.0,65,0.00,,SKC,0.00,VWS V14.01,2013-06-10 00:18:00,
2013-06-09 19:23:00,82.3,69.8,29.87,SE,136,0.0,6.0,66,0.00,,SKC,0.00,VWS V14.01,2013-06-10 00:23:00,
2013-06-09 19:28:00,82.1,68.7,29.86,SE,130,4.0,7.0,64,0.00,,SKC,0.00,VWS V14.01,2013-06-10 00:28:00,
2013-06-09 19:33:00,81.8,68.0,29.87,SE,130,0.0,3.0,63,0.00,,SKC,0.00,VWS V14.01,2013-06-10 00:33:00,
2013-06-09 19:38:00,81.6,67.8,29.87,SE,130,0.0,4.0,63,0.00,,SKC,0.00,VWS V14.01,2013-06-10 00:38:00,
2013-06-09 19:43:00,81.4,67.1,29.87,SE,130,0.0,4.0,62,0.00,,SKC,0.00,VWS V14.01,2013-06-10 00:43:00,
2013-06-09 19:48:00,81.3,67.1,29.87,SE,130,0.0,4.0,62,0.00,,SKC,0.00,VWS V14.01,2013-06-10 00:48:00,
2013-06-09 19:53:00,81.2,66.9,29.87,SE,130,0.0,4.0,62,0.00,,SKC,0.00,VWS V14.01,2013-06-10 00:53:00,
2013-06-09 19:58:00,81.1,67.3,29.87,SE,130,0.0,4.0,63,0.00,,SKC,0.00,VWS V14.01,2013-06-10 00:58:00,
2013-06-09 20:03:00,81.0,67.2,29.87,SE,130,0.0,0.0,63,0.00,,SKC,0.00,VWS V14.01,2013-06-10 01:03:00,
2013-06-09 20:08:00,81.0,67.7,29.87,SE,130,0.0,0.0,64,0.00,,SKC,0.00,VWS V14.01,2013-06-10 01:08:00,
2013-06-09 20:13:00,80.9,67.6,29.88,SE,130,0.0,0.0,64,0.00,,SKC,0.00,VWS V14.01,2013-06-10 01:13:00,
2013-06-09 20:18:00,80.8,67.9,29.87,SE,130,0.0,0.0,65,0.00,,SKC,0.00,VWS V14.01,2013-06-10 01:18:00,
2013-06-09 20:23:00,80.7,67.8,29.87,SE,130,0.0,0.0,65,0.00,,SKC,0.00,VWS V14.01,2013-06-10 01:23:00,
2013-06-09 20:28:00,80.6,68.2,29.88,SE,130,0.0,0.0,66,0.00,,SKC,0.00,VWS V14.01,2013-06-10 01:28:00,
2013-06-09 20:33:00,80.5,68.1,29.88,SE,130,0.0,0.0,66,0.00,,SKC,0.00,VWS V14.01,2013-06-10 01:33:00,
2013-06-09 20:38:00,80.4,68.4,29.89,SE,130,0.0,0.0,67,0.00,,SKC,0.00,VWS V14.01,2013-06-10 01:38:00,
2013-06-09 20:43:00,80.3,68.3,29.89,SE,130,0.0,0.0,67,0.00,,SKC,0.00,VWS V14.01,2013-06-10 01:43:00,
2013-06-09 20:48:00,80.1,68.6,29.89,SE,130,0.0,0.0,68,0.00,,SKC,0.00,VWS V14.01,2013-06-10 01:48:00,
2013-06-09 20:53:00,80.0,68.9,29.90,SE,130,0.0,1.0,69,0.00,,SKC,0.00,VWS V14.01,2013-06-10 01:53:00,
2013-06-09 20:58:00,79.8,68.7,29.90,SE,130,0.0,3.0,69,0.00,,SKC,0.00,VWS V14.01,2013-06-10 01:58:00,
2013-06-09 21:03:00,79.6,69.0,29.91,SE,130,0.0,3.0,70,0.00,,SKC,0.00,VWS V14.01,2013-06-10 02:03:00,
2013-06-09 21:08:00,79.4,69.2,29.91,SE,130,0.0,3.0,71,0.00,,SKC,0.00,VWS V14.01,2013-06-10 02:08:00,
2013-06-09 21:13:00,79.2,69.0,29.91,SE,130,0.0,3.0,71,0.00,,SKC,0.00,VWS V14.01,2013-06-10 02:13:00,
2013-06-09 21:18:00,79.0,68.8,29.91,SE,130,0.0,3.0,71,0.00,,SKC,0.00,VWS V14.01,2013-06-10 02:18:00,
2013-06-09 21:23:00,78.9,69.1,29.91,SE,130,0.0,3.0,72,0.00,,SKC,0.00,VWS V14.01,2013-06-10 02:23:00,
2013-06-09 21:28:00,78.8,69.0,29.91,SE,130,0.0,3.0,72,0.00,,SKC,0.00,VWS V14.01,2013-06-10 02:28:00,
2013-06-09 21:33:00,78.6,68.8,29.91,SE,130,0.0,1.0,72,0.00,,SKC,0.00,VWS V14.01,2013-06-10 02:33:00,
2013-06-09 21:38:00,78.5,68.7,29.92,SE,130,0.0,1.0,72,0.00,,SKC,0.00,VWS V14.01,2013-06-10 02:38:00,
2013-06-09 21:43:00,78.3,68.5,29.92,SE,130,0.0,5.0,72,0.00,,SKC,0.00,VWS V14.01,2013-06-10 02:43:00,
2013-06-09 21:48:00,78.2,68.8,29.92,SE,130,0.0,5.0,73,0.00,,SKC,0.00,VWS V14.01,2013-06-10 02:48:00,
2013-06-09 21:53:00,78.1,68.8,29.92,SE,130,0.0,5.0,73,0.00,,SKC,0.00,VWS V14.01,2013-06-10 02:53:00,
2013-06-09 21:58:00,78.0,69.1,29.92,SE,130,0.0,5.0,74,0.00,,SKC,0.00,VWS V14.01,2013-06-10 02:58:00,
2013-06-09 22:03:00,77.8,68.9,29.93,SE,130,0.0,0.0,74,0.00,,SKC,0.00,VWS V14.01,2013-06-10 03:03:00,
2013-06-09 22:08:00,77.8,69.2,29.93,SE,130,0.0,3.0,75,0.00,,SKC,0.00,VWS V14.01,2013-06-10 03:08:00,
2013-06-09 22:13:00,77.7,69.2,29.93,SE,130,4.0,5.0,75,0.00,,SKC,0.00,VWS V14.01,2013-06-10 03:13:00,
2013-06-09 22:18:00,77.6,69.4,29.93,SE,130,5.0,6.0,76,0.00,,SKC,0.00,VWS V14.01,2013-06-10 03:18:00,
2013-06-09 22:23:00,77.5,69.7,29.94,SE,130,3.0,6.0,77,0.00,,SKC,0.00,VWS V14.01,2013-06-10 03:23:00,
2013-06-09 22:28:00,77.4,69.6,29.94,SE,130,3.0,6.0,77,0.00,,SKC,0.00,VWS V14.01,2013-06-10 03:28:00,
2013-06-09 22:33:00,77.3,69.9,29.94,SE,130,2.0,4.0,78,0.00,,SKC,0.00,VWS V14.01,2013-06-10 03:33:00,
2013-06-09 22:38:00,77.3,69.9,29.95,SE,130,3.0,4.0,78,0.00,,SKC,0.00,VWS V14.01,2013-06-10 03:38:00,
2013-06-09 22:43:00,77.2,70.2,29.94,SE,130,1.0,5.0,79,0.00,,SKC,0.00,VWS V14.01,2013-06-10 03:43:00,
2013-06-09 22:48:00,77.1,70.1,29.95,SE,130,0.0,5.0,79,0.00,,SKC,0.00,VWS V14.01,2013-06-10 03:48:00,
2013-06-09 22:53:00,77.1,70.1,29.95,SE,130,0.0,5.0,79,0.00,,SKC,0.00,VWS V14.01,2013-06-10 03:53:00,
2013-06-09 22:58:00,77.0,70.4,29.95,SE,130,0.0,5.0,80,0.00,,SKC,0.00,VWS V14.01,2013-06-10 03:58:00,
2013-06-09 23:01:00,76.9,70.3,29.95,SE,130,0.0,5.0,80,0.00,,SKC,0.00,VWS V14.01,2013-06-10 04:01:00,
2013-06-09 23:02:00,76.9,70.3,29.96,SE,130,0.0,0.0,80,0.00,,SKC,0.00,VWS V14.01,2013-06-10 04:02:00,
2013-06-09 23:07:00,76.8,70.5,29.96,SE,130,0.0,1.0,81,0.00,,SKC,0.00,VWS V14.01,2013-06-10 04:07:00,
2013-06-09 23:12:00,76.7,70.4,29.96,SE,130,0.0,1.0,81,0.00,,SKC,0.00,VWS V14.01,2013-06-10 04:12:00,
2013-06-09 23:17:00,76.6,70.3,29.96,SE,130,2.0,2.0,81,0.00,,SKC,0.00,VWS V14.01,2013-06-10 04:17:00,
2013-06-09 23:22:00,76.5,70.6,29.96,SE,130,0.0,3.0,82,0.00,,SKC,0.00,VWS V14.01,2013-06-10 04:22:00,
2013-06-09 23:27:00,76.4,70.5,29.96,SE,130,0.0,3.0,82,0.00,,SKC,0.00,VWS V14.01,2013-06-10 04:27:00,
2013-06-09 23:32:00,76.3,70.4,29.96,SE,130,1.0,2.0,82,0.00,,SKC,0.00,VWS V14.01,2013-06-10 04:32:00,
2013-06-09 23:37:00,76.2,70.7,29.96,SE,130,0.0,2.0,83,0.00,,SKC,0.00,VWS V14.01,2013-06-10 04:37:00,
2013-06-09 23:42:00,76.1,70.6,29.96,SE,130,0.0,2.0,83,0.00,,SKC,0.00,VWS V14.01,2013-06-10 04:42:00,
2013-06-09 23:47:00,76.0,70.5,29.96,SE,130,0.0,5.0,83,0.00,,SKC,0.00,VWS V14.01,2013-06-10 04:47:00,
2013-06-09 23:52:00,75.9,70.7,29.96,SE,130,0.0,6.0,84,0.00,,SKC,0.00,VWS V14.01,2013-06-10 04:52:00,
2013-06-09 23:57:00,75.9,70.7,29.96,SE,130,0.0,6.0,84,0.00,,SKC,0.00,VWS V14.01,2013-06-10 04:57:00,